Location: Boulder Knolls Observatory
(33.2250°N, 117.1147°W)
Time: 15:54:37
(UTC-08:00)

Hubble Space Telescope - Visible Passes

Search period start: 24 November 2017 00:00
Search period end: 04 December 2017 00:00
Orbit: 537 x 541 km, 28.5° (Epoch: 24 November)

Date Brightness Start Highest point End Pass type
(mag) Time Alt. Az. Time Alt. Az. Time Alt. Az.
24 Nov 3.7 03:42:32 14° ESE 03:42:32 14° ESE 03:43:16 10° ESE visible
24 Nov 2.2 05:17:54 17° WSW 05:20:14 28° SSW 05:23:47 10° SE visible
25 Nov 4.1 03:32:57 10° ESE 03:32:57 10° ESE 03:33:00 10° ESE visible
25 Nov 2.4 05:08:19 19° SW 05:09:57 24° SSW 05:13:19 10° SE visible
26 Nov 2.5 04:58:45 19° SW 04:59:39 21° SSW 05:02:45 10° SSE visible
27 Nov 2.7 04:49:12 17° SSW 04:49:21 17° SSW 04:52:04 10° SSE visible
28 Nov 3.1 04:39:40 14° SSW 04:39:40 14° SSW 04:41:12 10° S visible
